Regional Weather Roundup
Issued by NWS Columbia, SC

Home | Current Version | Previous Version | Text Only | Print | Product List | Glossary On
Versions: 1 2 3 4 5 6 7 8 9 10 11 12 13 14 15 16 17 18 19 20 21 22 23 24 25 26 27 28 29 30 31 32 33 34 35 36 37 38 39 40 41 42 43 44 45 46 47 48 49 50
000
ASUS42 KCAE 281510
RWRCAE
REGIONAL WEATHER ROUNDUP
NATIONAL WEATHER SERVICE COLUMBIA SC
1100 AM EDT MON JUL 28 2014

NOTE: "FAIR" INDICATES FEW OR NO CLOUDS BELOW 12,000 FEET WITH NO
SIGNIFICANT WEATHER AND/OR OBSTRUCTIONS TO VISIBILITY.

NOT ALL STATIONS ARE QUALITY CONTROLLED BY THE NATIONAL
WEATHER SERVICE. USE DATA WITH CAUTION...ESPECIALLY
DEWPOINT OBSERVATIONS.

SCZ001>056-GAZ040-063>065-077-281600-
...UPSTATE SOUTH CAROLINA...

CITY           SKY/WX    TMP DP  RH WIND       PRES   REMARKS
ANDERSON       SUNNY     85  68  56 W15       29.89S
LIBERTY        FAIR      83  83 100 SW8       29.89S HX  99
SPARTANBURG    FAIR      86  70  58 SW9       29.86S
CLEMSON        SUNNY     86  66  51 W16       29.90S
GREENVILLE     SUNNY     83  68  60 SW8       29.89S
GREENWOOD      SUNNY     87  70  56 W13       29.89F
GREER          SUNNY     84  69  60 SW12      29.87S
ROCK HILL      SUNNY     83  71  67 W9        29.86S
CHESTER        FAIR      88  72  58 W8        29.86S
LAURENS        FAIR      88  68  51 SW9G16    29.88S


...CENTRAL SOUTH CAROLINA...

CITY           SKY/WX    TMP DP  RH WIND       PRES   REMARKS
COLUMBIA APT   CLOUDY    90  73  57 W15       29.85S HX  98
COLUMBIA OWENS CLOUDY    89  72  56 W10       29.86S HX  96
DARLINGTON     PTSUNNY   84  72  65 SW6       29.85R
FLORENCE       PTSUNNY   86  75  69 SW9       29.84R HX  95
MCENTIRE ANGB  PTSUNNY   85  74  70 W10G17    29.86S
ORANGEBURG     CLOUDY    85  74  69 W13       29.88R
SUMTER SHAW    CLOUDY    84  76  76 W10       29.84S
NEWBERRY       FAIR      86  70  58 W16       29.90S
AIKEN          FAIR      88  77  70 W12       29.92S HX 100
BARNWELL       FAIR      84  75  74 W12G17    29.90R
MANNING        FAIR      86  77  74 SW9G18    29.86S HX  97
CAMDEN         FAIR      86  72  62 W10       29.86S
LANCASTER      FAIR      84  73  70 W9        29.85S
WINNSBORO      FAIR      82  72  69 W10       29.87R


...EASTERN AND COASTAL SOUTH CAROLINA...

CITY           SKY/WX    TMP DP  RH WIND       PRES   REMARKS
MYRTLE BEACH   MOSUNNY   88  75  66 W6        29.84F HX  97
N MYRTLE BCH   PTSUNNY   87  75  67 W10       29.84S HX  96
CONWAY         FAIR      86  77  74 W7        29.85R HX  97
MARION         FAIR      86  72  62 W8        29.84S
HARTSVILLE     FAIR      86  55  35 W6        29.86R
FLORENCE       PTSUNNY   86  75  69 SW9       29.84R HX  95
DARLINGTON     PTSUNNY   84  72  65 SW6       29.85R
CHARLESTON APT PTSUNNY   91  76  61 W12G17    29.88S HX 103
MOUNT PLEASANT FAIR      90  77  66 W13G20    29.87S HX 102
WALTERBORO     PTSUNNY   88  73  62 W13G20    29.89S HX  96
BEAUFORT       PTSUNNY   90  77  65 W13       29.90S HX 103


...EASTERN GEORGIA...

CITY           SKY/WX    TMP DP  RH WIND       PRES   REMARKS
AUGUSTA BUSH F MOSUNNY   88  75  65 W14G22    29.88S HX  97
AUGUSTA DANIEL MOSUNNY   89  75  63 VRB5      29.90S HX  99
THOMSON        MOSUNNY   88  79  75 W13       29.94F HX 103
WASHINGTON     FAIR      88  77  70 W15       29.91S HX 100
CLAXTON        FAIR      91  79  66 SW10      29.93S HX 107
SYLVANIA       MOSUNNY   88  80  76 W9        29.92S HX 105
STATESBORO     MOSUNNY   89  77  69 W10       29.92S HX 101
SAVANNAH       MOSUNNY   91  76  61 W10       29.92S HX 103


...SOUTHERN NORTH CAROLINA...

CITY           SKY/WX    TMP DP  RH WIND       PRES   REMARKS
CHARLOTTE      SUNNY     84  68  58 W6        29.85S
MONROE         SUNNY     86  70  58 W13       29.84S
WADESBORO      SUNNY     86  70  58 W7        29.83S
ROCKINGHAM       N/A     84  72  65 W7        29.83S
RUTHERFORDTON  SUNNY     82  65  57 W9G22     29.89R
ASHEVILLE      SUNNY     77  63  61 N16       29.94S

$$



USA.gov is the U.S. government's official web portal to all federal, state and local government web resources and services.